TimeMST,TemperatureF,Dew PointF,Humidity,Sea Level PressureIn,VisibilityMPH,Wind Direction,Wind SpeedMPH,Gust SpeedMPH,PrecipitationIn,Events,Conditions,WindDirDegrees,DateUTC
12:53 AM,78.1,51.1,39,29.87,10.0,South,3.5,-,N/A,,Clear,190,2013-08-04 07:53:00
1:53 AM,78.1,50.0,37,29.88,10.0,South,5.8,-,N/A,,Clear,190,2013-08-04 08:53:00
2:53 AM,75.9,51.1,42,29.87,10.0,SW,4.6,-,N/A,,Clear,220,2013-08-04 09:53:00
3:53 AM,73.0,51.1,46,29.88,10.0,Calm,Calm,-,N/A,,Clear,0,2013-08-04 10:53:00
4:53 AM,73.9,48.0,40,29.89,10.0,NW,3.5,-,N/A,,Clear,310,2013-08-04 11:53:00
5:53 AM,73.0,46.0,38,29.92,10.0,Calm,Calm,-,N/A,,Clear,0,2013-08-04 12:53:00
6:53 AM,73.9,51.1,45,29.94,10.0,Calm,Calm,-,N/A,,Clear,0,2013-08-04 13:53:00
7:53 AM,80.1,45.0,29,29.94,10.0,Calm,Calm,-,N/A,,Clear,0,2013-08-04 14:53:00
8:53 AM,82.9,50.0,32,29.94,10.0,North,3.5,-,N/A,,Clear,360,2013-08-04 15:53:00
9:53 AM,86.0,44.1,23,29.94,10.0,Calm,Calm,-,N/A,,Clear,0,2013-08-04 16:53:00
10:53 AM,89.1,37.9,16,29.93,10.0,Calm,Calm,-,N/A,,Clear,0,2013-08-04 17:53:00
11:53 AM,91.0,37.9,15,29.91,10.0,Calm,Calm,-,N/A,,Clear,0,2013-08-04 18:53:00
12:53 PM,93.9,39.0,15,29.88,10.0,NNW,5.8,-,N/A,,Clear,340,2013-08-04 19:53:00
1:53 PM,95.0,39.9,15,29.86,10.0,North,3.5,-,N/A,,Clear,360,2013-08-04 20:53:00
2:53 PM,93.9,39.9,15,29.84,10.0,Calm,Calm,-,N/A,,Clear,0,2013-08-04 21:53:00
3:53 PM,89.1,44.1,21,29.86,10.0,SE,19.6,27.6,N/A,,Mostly Cloudy,130,2013-08-04 22:53:00
4:53 PM,80.1,54.0,40,29.95,10.0,SW,11.5,19.6,0.00,Rain,Light Rain,220,2013-08-04 23:53:00
5:53 PM,80.1,53.1,39,29.91,10.0,SSW,9.2,24.2,0.00,,Mostly Cloudy,210,2013-08-05 00:53:00
6:53 PM,81.0,53.1,38,29.89,10.0,SSW,10.4,18.4,N/A,,Partly Cloudy,210,2013-08-05 01:53:00
7:53 PM,80.1,53.1,39,29.88,10.0,SW,9.2,16.1,N/A,,Partly Cloudy,220,2013-08-05 02:53:00
8:53 PM,79.0,54.0,42,29.89,10.0,SW,9.2,-,N/A,,Clear,220,2013-08-05 03:53:00
9:53 PM,79.0,52.0,39,29.90,10.0,WSW,3.5,-,N/A,,Clear,240,2013-08-05 04:53:00
10:53 PM,78.1,51.1,39,29.90,10.0,Calm,Calm,-,N/A,,Clear,0,2013-08-05 05:53:00
11:53 PM,77.0,52.0,42,29.91,10.0,Calm,Calm,-,N/A,,Clear,0,2013-08-05 06:53:00